CZ-3C DEB, 40859

Orbit data source: Space-Track

CZ-3C DEB, 40859 is space debris in HEO originally from a launch on Fri, 24 Feb 2012 UTC launched from the Xichang Space Center, China (XSC). Debris objects in space refer to the collection of defunct objects orbiting the Earth. Examples of debris include non-operational satellites, rocket bodies, and fragments generated from explosions, collisions, or faulty payload assembly.

Loading next visibility...
Identifier
40859, 2012-008Z
Orbit
HEO
Country
Flag of CNCN / PRC
Related business
Manufacturer
CALT
Mission
Spacecraft
Bus & Motor
Unknown
Mass
Unknown
Launch date (UTC)
2012-02-24 (14 years ago)
Launch vehicle
Unknown
Launch site
Xichang Space Center, China (XSC)
Object type
Payload
Rocket body
Debris
Shape & HBR
Unknown shape, 0.2 m
Radar Cross Section
Medium (>0.1 m² and <1 m²)

Expand to show TLE details & history
Last TLE update: 2 months ago

TLE from 2 months ago
0 CZ-3C DEB
1 40859U 12008Z   26143.21601828  .00000276  00000-0  41214-2 0  9990
2 40859  22.3565  13.0256 7176096 164.9393 240.2411  2.25634859    18
Epoch: 2026-05-23T05:11Z
TLE epoch observation values (Epoch: 2026-05-23T05:11:03.979Z)
Latitude
0.00003°
Longitude
54.41996°
Altitude
32,421.141 km
Speed
2.077 km/s
True Right ascension
00h 52m 05s
True Declination
0° 00' 00"
Sunlit
Object was in daylight at epoch
Visualization orbit readout
Latitude
Unknown
Longitude
Unknown
Altitude
Unknown
Speed
Unknown
Apparent Right ascension
Unknown
Apparent Declination
Unknown
Sunlit
N/A
Visualization observer readout
Local Sidereal Time
19:22:03
Azimuth
Unknown
Elevation
Unknown
Doppler factor
Unknown
Orbital elements
Apogee altitude
35,804.07 km
Perigee altitude
556.996 km
Semi-major axis
24,558.67 km
Eccentricity
0.71761
Inclination
22.3565°
RAAN
13.0256°
Arg. of periapsis
164.9393°
True anomaly
195.03113°
Mean anomaly
240.2411°
Eccentric anomaly
216.04665°
Mean motion
0.56394 °/min
Orbital period
638.36 mins
BSTAR
0.0041214
Loading maneuver chart data...
Computing Atmospheric mass density...
Loading historical data...
Loading historical data...
Loading historical data...
Loading historical data...
Loading historical data...
Loading historical data...
Loading historical data...

Documentation

Showing up to 5 results
|